TVF432 LFML-LPMA

Flight info

Callsign TVF432
Flight time N/A
Altitude 35000
Route MAMES DCT BISBA/N0454F350 N975 ADUXO DCT CJN N975 TLD/N0347F130 N975 CCS/N0459F350 DCT NARTA DCT GALPA DCT RAKUN RAKUN1P/23
Aircraft B738/M-SDE2E3FGHIRWXY/LB1

Departure

Time N/A
Airport Marseille Provence Airport (LFML)

Arrival

Time 2026-05-03 21:11
Airport Cristiano Ronaldo International Airport (LPMA)
Time Latitude Longitude Altitude Speed Heading
2026-05-03 20:15 36.30596 -12.15233 37125 ft 385 kts 236°
2026-05-03 20:15 36.27353 -12.20522 37126 ft 385 kts 236°
2026-05-03 20:16 36.24114 -12.25798 37110 ft 385 kts 236°
2026-05-03 20:16 36.20862 -12.31085 37119 ft 386 kts 236°
2026-05-03 20:17 36.17609 -12.36367 37123 ft 386 kts 236°
2026-05-03 20:17 36.14352 -12.41647 37132 ft 386 kts 236°
2026-05-03 20:18 36.11084 -12.46938 37130 ft 387 kts 236°
2026-05-03 20:18 36.07831 -12.52196 37099 ft 387 kts 236°
2026-05-03 20:19 36.04471 -12.57397 37127 ft 389 kts 232°
2026-05-03 20:19 36.00810 -12.62337 37122 ft 390 kts 232°
2026-05-03 20:20 35.97135 -12.67253 37125 ft 390 kts 232°
2026-05-03 20:20 35.93460 -12.72183 37126 ft 390 kts 232°
2026-05-03 20:21 35.89789 -12.77116 37129 ft 391 kts 232°
2026-05-03 20:21 35.86110 -12.82058 37131 ft 391 kts 232°
2026-05-03 20:22 35.82453 -12.86964 37126 ft 391 kts 232°
2026-05-03 20:22 35.78749 -12.91926 37124 ft 391 kts 232°
2026-05-03 20:23 35.75092 -12.96818 37131 ft 391 kts 232°
2026-05-03 20:23 35.71408 -13.01739 37133 ft 391 kts 232°
2026-05-03 20:24 35.67717 -13.06662 37132 ft 391 kts 232°
2026-05-03 20:24 35.64023 -13.11582 37134 ft 391 kts 232°
2026-05-03 20:25 35.60327 -13.16497 37127 ft 392 kts 232°
2026-05-03 20:25 35.56624 -13.21414 37137 ft 392 kts 231°
2026-05-03 20:26 35.52922 -13.26324 37136 ft 392 kts 231°
2026-05-03 20:26 35.49216 -13.31230 37123 ft 392 kts 231°
2026-05-03 20:27 35.45525 -13.36110 37131 ft 392 kts 231°
2026-05-03 20:27 35.41785 -13.41049 37137 ft 393 kts 231°
2026-05-03 20:28 35.38089 -13.45921 37137 ft 393 kts 231°
2026-05-03 20:28 35.34364 -13.50824 37124 ft 393 kts 231°
2026-05-03 20:29 35.30629 -13.55734 37141 ft 394 kts 231°
2026-05-03 20:29 35.26892 -13.60639 37139 ft 394 kts 231°
2026-05-03 20:30 35.23148 -13.65546 37138 ft 395 kts 231°
2026-05-03 20:30 35.19395 -13.70458 37139 ft 395 kts 231°
2026-05-03 20:31 35.15638 -13.75367 37138 ft 395 kts 231°
2026-05-03 20:31 35.11882 -13.80268 37135 ft 395 kts 231°
2026-05-03 20:32 35.08125 -13.85164 37139 ft 395 kts 231°
2026-05-03 20:32 35.04358 -13.90066 37135 ft 395 kts 231°
2026-05-03 20:33 35.00592 -13.94959 37138 ft 396 kts 231°
2026-05-03 20:33 34.96852 -13.99812 37140 ft 396 kts 231°
2026-05-03 20:34 34.93075 -14.04705 37091 ft 396 kts 231°
2026-05-03 20:34 34.89308 -14.09578 37126 ft 395 kts 231°
2026-05-03 20:35 34.85545 -14.14439 37134 ft 394 kts 231°
2026-05-03 20:35 34.81776 -14.19302 37137 ft 394 kts 231°
2026-05-03 20:36 34.78007 -14.24158 37135 ft 395 kts 231°
2026-05-03 20:36 34.74230 -14.29017 37141 ft 395 kts 230°
2026-05-03 20:37 34.70446 -14.33878 37135 ft 396 kts 230°
2026-05-03 20:37 34.66658 -14.38736 37135 ft 396 kts 230°
2026-05-03 20:38 34.62861 -14.43601 37107 ft 396 kts 230°
2026-05-03 20:38 34.59067 -14.48453 37138 ft 396 kts 230°
2026-05-03 20:39 34.55272 -14.53301 37128 ft 396 kts 230°
2026-05-03 20:39 34.51476 -14.58143 37127 ft 396 kts 230°
2026-05-03 20:40 34.47676 -14.62984 37133 ft 396 kts 230°
2026-05-03 20:40 34.43876 -14.67820 37127 ft 396 kts 230°
2026-05-03 20:41 34.40072 -14.72651 37137 ft 396 kts 230°
2026-05-03 20:41 34.36284 -14.77452 37137 ft 397 kts 230°
2026-05-03 20:42 34.32468 -14.82281 37125 ft 396 kts 230°
2026-05-03 20:42 34.28651 -14.87106 37123 ft 396 kts 230°
2026-05-03 20:43 34.24835 -14.91925 36975 ft 399 kts 230°
2026-05-03 20:43 34.22905 -14.94362 36514 ft 401 kts 230°
2026-05-03 20:43 34.20977 -14.96793 35936 ft 399 kts 230°
2026-05-03 20:43 34.19052 -14.99216 35294 ft 399 kts 230°
2026-05-03 20:44 34.17777 -15.00821 34941 ft 398 kts 230°
2026-05-03 20:44 34.15872 -15.03216 34530 ft 393 kts 230°
2026-05-03 20:44 34.13984 -15.05587 34088 ft 389 kts 230°
2026-05-03 20:44 34.12121 -15.07927 33599 ft 385 kts 230°
2026-05-03 20:45 34.10274 -15.10245 33161 ft 381 kts 230°
2026-05-03 20:45 34.08451 -15.12532 32715 ft 377 kts 230°
2026-05-03 20:45 34.06639 -15.14804 32280 ft 373 kts 230°
2026-05-03 20:45 34.04849 -15.17048 31862 ft 369 kts 230°
2026-05-03 20:46 34.03098 -15.19241 31452 ft 365 kts 231°
2026-05-03 20:46 34.01342 -15.21439 31057 ft 362 kts 231°
2026-05-03 20:46 33.99605 -15.23612 30655 ft 359 kts 231°
2026-05-03 20:46 33.97877 -15.25773 30258 ft 356 kts 231°
2026-05-03 20:47 33.96163 -15.27915 29808 ft 354 kts 231°
2026-05-03 20:47 33.94459 -15.30042 29377 ft 351 kts 231°
2026-05-03 20:47 33.92774 -15.32145 28955 ft 347 kts 231°
2026-05-03 20:47 33.91128 -15.34197 28560 ft 344 kts 231°
2026-05-03 20:48 33.89475 -15.36257 28150 ft 341 kts 231°
2026-05-03 20:48 33.87833 -15.38303 27757 ft 338 kts 231°
2026-05-03 20:48 33.86204 -15.40332 27358 ft 336 kts 231°
2026-05-03 20:48 33.84582 -15.42351 26969 ft 337 kts 231°
2026-05-03 20:49 33.82927 -15.44413 26589 ft 348 kts 230°
2026-05-03 20:49 33.81222 -15.46539 26173 ft 356 kts 230°
2026-05-03 20:49 33.79509 -15.48666 25748 ft 354 kts 230°
2026-05-03 20:49 33.77799 -15.50785 25330 ft 351 kts 230°
2026-05-03 20:50 33.76098 -15.52892 24849 ft 348 kts 230°
2026-05-03 20:50 33.74414 -15.54976 24243 ft 347 kts 230°
2026-05-03 20:50 33.72736 -15.57056 23547 ft 347 kts 230°
2026-05-03 20:50 33.71059 -15.59133 22847 ft 345 kts 230°
2026-05-03 20:51 33.69400 -15.61184 22365 ft 339 kts 230°
2026-05-03 20:51 33.67763 -15.63207 21943 ft 336 kts 230°
2026-05-03 20:51 33.66142 -15.65212 21531 ft 334 kts 230°
2026-05-03 20:51 33.64522 -15.67214 21137 ft 332 kts 230°
2026-05-03 20:52 33.62918 -15.69196 20744 ft 330 kts 230°
2026-05-03 20:52 33.61320 -15.71168 20361 ft 328 kts 230°
2026-05-03 20:52 33.59754 -15.73101 19970 ft 327 kts 230°
2026-05-03 20:52 33.58171 -15.75053 19586 ft 326 kts 229°
2026-05-03 20:53 33.56587 -15.77003 19216 ft 325 kts 229°
2026-05-03 20:53 33.55005 -15.78938 18773 ft 327 kts 229°
2026-05-03 20:53 33.53370 -15.80878 18142 ft 333 kts 228°
2026-05-03 20:53 33.51712 -15.82817 17691 ft 330 kts 227°
2026-05-03 20:54 33.50079 -15.84718 17199 ft 325 kts 227°
2026-05-03 20:54 33.46849 -15.88486 16028 ft 323 kts 227°
2026-05-03 20:54 33.45249 -15.90356 15567 ft 318 kts 227°
2026-05-03 20:55 33.43672 -15.92198 15181 ft 316 kts 227°
2026-05-03 20:55 33.42100 -15.94036 14818 ft 315 kts 227°
2026-05-03 20:55 33.40534 -15.95867 14464 ft 314 kts 227°
2026-05-03 20:55 33.38983 -15.97680 14104 ft 311 kts 227°
2026-05-03 20:56 33.37459 -15.99460 13746 ft 310 kts 227°
2026-05-03 20:56 33.35923 -16.01254 13359 ft 309 kts 227°
2026-05-03 20:56 33.34401 -16.03029 12995 ft 307 kts 227°
2026-05-03 20:56 33.32882 -16.04802 12637 ft 305 kts 226°
2026-05-03 20:57 33.31370 -16.06565 12289 ft 304 kts 226°
2026-05-03 20:57 33.29861 -16.08323 11939 ft 302 kts 226°
2026-05-03 20:57 33.28359 -16.10073 11592 ft 300 kts 226°
2026-05-03 20:57 33.26846 -16.11834 11244 ft 299 kts 226°
2026-05-03 20:58 33.25379 -16.13541 10899 ft 298 kts 226°
2026-05-03 20:58 33.23898 -16.15264 10560 ft 297 kts 226°
2026-05-03 20:58 33.22448 -16.16948 10408 ft 283 kts 226°
2026-05-03 20:58 33.21069 -16.18547 10254 ft 269 kts 226°
2026-05-03 20:59 33.19749 -16.20080 10150 ft 261 kts 226°
2026-05-03 20:59 33.18466 -16.21569 10045 ft 253 kts 226°
2026-05-03 20:59 33.17210 -16.23026 9781 ft 251 kts 226°
2026-05-03 20:59 33.15961 -16.24477 9521 ft 250 kts 226°
2026-05-03 21:00 33.14719 -16.25918 9255 ft 248 kts 226°
2026-05-03 21:00 33.13901 -16.26866 9080 ft 249 kts 226°
2026-05-03 21:00 33.12217 -16.28820 8728 ft 256 kts 226°
2026-05-03 21:00 33.10926 -16.30316 8464 ft 262 kts 226°
2026-05-03 21:01 33.09605 -16.31842 8184 ft 263 kts 226°
2026-05-03 21:01 33.08294 -16.33354 7899 ft 262 kts 226°
2026-05-03 21:01 33.06987 -16.34869 7607 ft 262 kts 226°
2026-05-03 21:01 33.05681 -16.36381 7324 ft 261 kts 226°
2026-05-03 21:02 33.04398 -16.37865 7079 ft 259 kts 226°
2026-05-03 21:02 33.03110 -16.39353 6817 ft 256 kts 226°
2026-05-03 21:02 33.01842 -16.40816 6528 ft 252 kts 226°
2026-05-03 21:02 33.00593 -16.42257 6240 ft 246 kts 226°
2026-05-03 21:03 32.99378 -16.43660 5975 ft 242 kts 226°
2026-05-03 21:03 32.98169 -16.45054 5717 ft 241 kts 226°
2026-05-03 21:03 32.96971 -16.46437 5461 ft 240 kts 226°
2026-05-03 21:03 32.95780 -16.47809 5251 ft 234 kts 226°
2026-05-03 21:04 32.94626 -16.49136 5133 ft 226 kts 226°
2026-05-03 21:04 32.93532 -16.50394 5030 ft 211 kts 226°
2026-05-03 21:04 32.92511 -16.51555 4935 ft 195 kts 224°
2026-05-03 21:04 32.91512 -16.52625 4871 ft 192 kts 224°
2026-05-03 21:05 32.90519 -16.53682 4778 ft 192 kts 224°
2026-05-03 21:05 32.89516 -16.54751 4604 ft 197 kts 224°
2026-05-03 21:05 32.88502 -16.55833 4416 ft 199 kts 223°
2026-05-03 21:05 32.87474 -16.56928 4189 ft 197 kts 223°
2026-05-03 21:06 32.86465 -16.58003 3960 ft 193 kts 223°
2026-05-03 21:06 32.85470 -16.59064 3763 ft 191 kts 223°
2026-05-03 21:06 32.84473 -16.60128 3557 ft 193 kts 223°
2026-05-03 21:06 32.83471 -16.61197 3356 ft 192 kts 222°
2026-05-03 21:07 32.82499 -16.62229 3134 ft 182 kts 224°
2026-05-03 21:07 32.81578 -16.63209 2922 ft 174 kts 225°
2026-05-03 21:07 32.80707 -16.64138 2735 ft 162 kts 225°
2026-05-03 21:07 32.79949 -16.64994 2664 ft 144 kts 229°
2026-05-03 21:08 32.79258 -16.65878 2545 ft 146 kts 230°
2026-05-03 21:08 32.78586 -16.66763 2424 ft 142 kts 231°
2026-05-03 21:08 32.77949 -16.67652 2211 ft 141 kts 231°
2026-05-03 21:08 32.77316 -16.68520 1980 ft 137 kts 231°
2026-05-03 21:09 32.76651 -16.69351 1765 ft 139 kts 229°
2026-05-03 21:09 32.75993 -16.70182 1576 ft 138 kts 229°
2026-05-03 21:09 32.75307 -16.70998 1418 ft 141 kts 225°
2026-05-03 21:09 32.74607 -16.71796 1214 ft 140 kts 224°
2026-05-03 21:10 32.73923 -16.72574 1031 ft 136 kts 224°
2026-05-03 21:10 32.73257 -16.73388 865 ft 137 kts 226°
2026-05-03 21:10 32.72593 -16.74197 742 ft 139 kts 225°
2026-05-03 21:10 32.71892 -16.74985 561 ft 138 kts 225°
2026-05-03 21:11 32.71234 -16.75765 405 ft 132 kts 223°
2026-05-03 21:11 32.70572 -16.76528 247 ft 134 kts 225°
2026-05-03 21:11 32.69946 -16.77257 194 ft 108 kts 226°
2026-05-03 21:11 32.69564 -16.77707 174 ft 44 kts 224°
2026-05-03 21:12 32.69418 -16.77879 170 ft 24 kts 223°
2026-05-03 21:12 32.69366 -16.77939 168 ft 8 kts 224°
2026-05-03 21:12 32.69354 -16.77952 168 ft 1 kts 220°
2026-05-03 21:12 32.69344 -16.77960 168 ft 1 kts 208°
2026-05-03 21:13 32.69335 -16.77964 168 ft 0 kts 200°